COSMOS 2491 DEB, 57550

Orbit data source: Space-Track

COSMOS 2491 DEB, 57550 is space debris in LEO originally from a launch on Wed, 25 Dec 2013 UTC launched from the Plesetsk Missile And Space Complex (PKMTR). Debris objects in space refer to the collection of defunct objects orbiting the Earth. Examples of debris include non-operational satellites, rocket bodies, and fragments generated from explosions, collisions, or faulty payload assembly.

Loading next visibility...
Identifier
57550, 2013-076AM
Orbit
LEO
Country
Flag of CISCIS
Related business
Manufacturer
TsNIIKhM
Mission
Spacecraft
Bus & Motor
Unknown
Mass
Unknown
Launch date (UTC)
2013-12-25 (12 years ago)
Launch vehicle
Unknown
Launch site
Plesetsk Missile And Space Complex (PKMTR)
Object type
Payload
Rocket body
Debris
Shape & HBR
Unknown shape, 0.1 m
Radar Cross Section
Small (<0.1 m²)

Expand to show TLE details & history
Last TLE update: 1 week ago

TLE from 1 week ago
0 COSMOS 2491 DEB
1 57550U 13076AM  26118.76736518  .00003220  00000-0  14392-1 0  9997
2 57550  82.4661 130.4158 0154770 197.2219 162.3595 12.74990051137794
Epoch: 2026-04-28T18:25Z
TLE epoch observation values (Epoch: 2026-04-28T18:25:00.351Z)
Latitude
-0.00003°
Longitude
-2.57362°
Altitude
1,478.767 km
Speed
7.071 km/s
True Right ascension
08h 41m 39s
True Declination
0° 00' 00"
Sunlit
Object was in daylight at epoch
Visualization orbit readout
Latitude
Unknown
Longitude
Unknown
Altitude
Unknown
Speed
Unknown
Apparent Right ascension
Unknown
Apparent Declination
Unknown
Sunlit
N/A
Visualization observer readout
Local Sidereal Time
10:18:06
Azimuth
Unknown
Elevation
Unknown
Doppler factor
Unknown
Orbital elements
Apogee altitude
1,478.733 km
Perigee altitude
1,239.238 km
Semi-major axis
7,737.122 km
Eccentricity
0.01548
Inclination
82.4661°
RAAN
130.4158°
Arg. of periapsis
197.2219°
True anomaly
162.88721°
Mean anomaly
162.3595°
Eccentric anomaly
162.62432°
Mean motion
3.18914 °/min
Orbital period
112.88 mins
BSTAR
0.014392
Loading maneuver chart data...
Computing Atmospheric mass density...
Loading historical data...
Loading historical data...
Loading historical data...
Loading historical data...
Loading historical data...
Loading historical data...
Loading historical data...

Documentation

Showing up to 5 results
|